Regional Weather Roundup
Issued by NWS

Home | Current Version | Previous Version | Graphics & Text | Print | Product List | Glossary On
Versions: 1 2 3 4 5 6 7 8 9 10 11 12 13 14 15 16 17 18 19 20 21 22 23 24 25 26 27 28 29 30 31 32 33 34 35 36 37 38 39 40 41 42 43 44 45 46 47 48 49 50
000
ASUS43 KBIS 272010
RWRND

NORTH DAKOTA REGIONAL WEATHER ROUNDUP
NATIONAL WEATHER SERVICE BISMARCK ND
200 PM CST MON FEB 27 2017

NOTE: "FAIR" INDICATES FEW OR NO CLOUDS BELOW 12,000 FEET WITH NO
SIGNIFICANT WEATHER AND/OR OBSTRUCTIONS TO VISIBILITY.


NDZ001>003-009>011-017-272100-
NORTHWEST NORTH DAKOTA

CITY           SKY/WX    TMP DP  RH WIND       PRES   REMARKS
WILLISTON      CLOUDY    14   6  70 NE9       29.82  WCI   2
MINOT          LGT SNOW  14   8  77 N9        29.83F WCI   2
MINOT AFB      LGT SNOW  12   7  80 N8        29.84F WCI   1
$$

NDZ018>021-031>035-040>046-272100-
SOUTHWEST NORTH DAKOTA

CITY           SKY/WX    TMP DP  RH WIND       PRES   REMARKS
BISMARCK       CLOUDY    24  17  74 NE13      29.78F WCI  12
DICKINSON      CLOUDY    17  13  84 NE14      29.69S FOG     WCI   3
GARRISON         N/A     15  10  80 NE8       29.80F WCI   4
HETTINGER ARPT CLOUDY    27  19  72 NE9       29.68F WCI  18
$$

NDZ004>008-012>016-024-026-027-054-272100-
NORTHEAST NORTH DAKOTA

CITY           SKY/WX    TMP DP  RH WIND       PRES   REMARKS
GRAND FORKS    CLOUDY    27  15  61 W5        29.89
GRND FRKS AFB  PTSUNNY   27  17  65 N7        29.88F WCI  20
DEVILS LAKE    LGT SNOW  17  13  84 NE13      29.85F FOG     WCI   4
$$

NDZ022-023-025-028>030-036>039-047>053-272100-
SOUTHEAST NORTH DAKOTA

CITY           SKY/WX    TMP DP  RH WIND       PRES   REMARKS
FARGO          PTSUNNY   32  22  66 E7        29.83
JAMESTOWN      PTSUNNY   28  19  69 NE12      29.77F WCI  18
$$




USA.gov is the U.S. government's official web portal to all federal, state and local government web resources and services.